Weather Roundup
Issued by NWS Springfield, MO

Home | Current Version | Previous Version | Text Only | Print | Product List | Glossary On
Versions: 1 2 3 4 5 6 7 8 9 10 11 12 13 14 15 16 17 18 19 20 21 22 23 24 25 26 27 28 29 30 31 32 33 34 35 36 37 38 39 40 41 42 43 44 45 46 47 48 49 50
000
NZUS99 KSGF 230259
HRRSGF

HOURLY WEATHER
NATIONAL WEATHER SERVICE SPRINGFIELD MO
1000 PM CDT MON SEP 22 2014

......SGF CWA......

CITY           SKY/WX    TMP DP  RH WIND       PRES   REMARKS
SPRINGFIELD    PTCLDY    62  49  62 E7        30.24S
JOPLIN         PTCLDY    61  53  75 E7        30.23S
WEST PLAINS    CLEAR     54  50  86 CALM      30.26R
ROLLA          CLEAR     52  45  77 E6        30.25S
OSAGE BEACH    PTCLDY    54  48  82 CALM      30.25S

......SURROUNDING SGF CWA......

CITY           SKY/WX    TMP DP  RH WIND       PRES   REMARKS
CHANUTE        PTCLDY    59  54  83 CALM      30.23R
PARSONS        PTCLDY    57  55  93 CALM      30.23S
COFFEYVILLE    PTCLDY    59  56  89 CALM      30.22R
EMPORIA        MOCLDY    59  53  80 SE8       30.22S
GROVE OK       CLEAR     61  55  82 CALM      30.23S
SILOAM SPRINGS CLEAR     61  48  63 E5        30.24S
HARRISON AR    CLEAR     56  53  90 CALM      30.25R
NEAR YELLVILLE CLEAR     57  48  72 CALM      30.24R

......KANSAS AND MISSOURI......

CITY           SKY/WX    TMP DP  RH WIND       PRES   REMARKS
KANSAS CTY INT CLOUDY    61  52  72 SE7       30.23S
DOWNTOWN KC    MOCLDY    69  51  52 SE7       30.22S
COLUMBIA       PTCLDY    60  50  69 E6        30.27R
SEDALIA        PTCLDY    60  51  72 SE3       30.26R
ST JOSEPH      MOCLDY    57  53  86 SW3       30.22S
ST LOUIS       PTCLDY    63  50  62 CALM      30.27R
SPIRIT OF STL  CLEAR     54  52  93 CALM      30.26R
KIRKSVILLE     PTCLDY    52  32  46 CALM      30.26F
WICHITA        MOCLDY    66  47  50 SE8       30.20R
TOPEKA         MOCLDY    59  53  80 CALM      30.22S
OLATHE         MOCLDY    61  52  72 SE5       30.23S

......TENNESSEE......

CITY           SKY/WX    TMP DP  RH WIND       PRES   REMARKS
MEMPHIS        CLEAR     67  48  50 NE10      30.20R
NASHVILLE      CLEAR     59  47  64 NE6       30.23R

......ARKANSAS.......

CITY           SKY/WX    TMP DP  RH WIND       PRES   REMARKS
FAYETTEVILLE   CLEAR     54  54 100 CALM      30.24R
FT SMITH       CLEAR     65  55  70 NE6       30.19R
LITTLE ROCK    PTCLDY    64  51  62 NE5       30.20R

......OKLAHOMA.......

CITY           SKY/WX    TMP DP  RH WIND       PRES   REMARKS
TULSA          PTCLDY    67  54  63 E5        30.21R
PONCA CITY     MOCLDY    67  51  56 E8        30.20S
MCALESTER      CLEAR     62  53  72 CALM      30.21R
OKLAHOMA CITY  MOCLDY    63  50  62 E7        30.20R

......IOWA............

CITY           SKY/WX    TMP DP  RH WIND       PRES   REMARKS
DES MOINES     PTCLDY    61  51  70 S7        30.22S
QUAD CITIES    CLEAR     50  47  89 CALM      30.26R

......ILLINOIS........

CITY           SKY/WX    TMP DP  RH WIND       PRES   REMARKS
QUINCY         CLEAR     56  48  74 CALM      30.26S
CHICAGO        CLEAR     57  46  66 S6        30.26R



USA.gov is the U.S. government's official web portal to all federal, state and local government web resources and services.